TimeCST,TemperatureF,Dew PointF,Humidity,Sea Level PressureIn,VisibilityMPH,Wind Direction,Wind SpeedMPH,Gust SpeedMPH,PrecipitationIn,Events,Conditions,WindDirDegrees,DateUTC
12:53 AM,16.0,-0.0,49,30.22,10.0,ESE,18.4,-,N/A,,Clear,110,2013-02-20 06:53:00
1:53 AM,15.1,-0.0,51,30.19,10.0,ESE,19.6,-,N/A,,Clear,110,2013-02-20 07:53:00
2:53 AM,14.0,-0.0,54,30.18,10.0,ESE,20.7,27.6,N/A,,Clear,120,2013-02-20 08:53:00
3:53 AM,12.9,-0.0,56,30.17,10.0,ESE,16.1,-,N/A,,Clear,110,2013-02-20 09:53:00
4:53 AM,12.0,-0.0,59,30.16,10.0,ESE,18.4,-,N/A,,Clear,110,2013-02-20 10:53:00
5:53 AM,10.4,1.4,67,30.05,10.0,ESE,15.0,-,N/A,,Clear,110,2013-02-20 11:53:00
6:53 AM,10.4,1.4,67,30.04,10.0,ESE,19.6,23.0,N/A,,Partly Cloudy,120,2013-02-20 12:53:00
7:38 AM,12.2,1.4,62,30.05,10.0,ESE,13.8,-,N/A,,Overcast,110,2013-02-20 13:38:00
7:53 AM,12.9,1.9,62,30.17,10.0,ESE,16.1,-,N/A,,Overcast,120,2013-02-20 13:53:00
8:53 AM,14.0,1.4,57,30.05,10.0,ESE,16.1,23.0,N/A,,Overcast,120,2013-02-20 14:53:00
9:53 AM,17.1,1.9,52,30.17,10.0,ESE,13.8,21.9,N/A,,Overcast,120,2013-02-20 15:53:00
10:24 AM,17.6,3.2,53,30.05,10.0,ESE,16.1,-,N/A,,Overcast,110,2013-02-20 16:24:00
10:53 AM,17.6,6.8,63,30.05,5.0,ESE,12.7,-,N/A,Snow,Light Snow,110,2013-02-20 16:53:00
11:53 AM,18.0,10.9,74,30.16,7.0,ESE,15.0,-,0.00,,Overcast,110,2013-02-20 17:53:00
12:49 PM,19.4,12.2,74,30.02,6.0,ESE,15.0,-,0.00,,Haze,110,2013-02-20 18:49:00
12:53 PM,19.9,12.9,74,30.14,6.0,ESE,18.4,-,0.00,,Haze,110,2013-02-20 18:53:00
1:30 PM,19.4,14.0,80,29.99,10.0,ESE,15.0,-,N/A,,Overcast,110,2013-02-20 19:30:00
1:53 PM,19.9,14.0,78,30.10,8.0,ESE,16.1,-,N/A,,Overcast,110,2013-02-20 19:53:00
2:53 PM,21.0,16.0,81,30.07,10.0,ESE,19.6,-,0.00,,Overcast,110,2013-02-20 20:53:00
3:53 PM,21.9,17.1,82,30.06,10.0,ESE,15.0,24.2,N/A,,Overcast,110,2013-02-20 21:53:00
4:53 PM,21.9,18.0,85,30.05,1.5,ESE,17.3,-,0.00,Snow,Light Snow,110,2013-02-20 22:53:00
4:59 PM,21.2,17.6,86,29.93,1.2,ESE,16.1,-,0.00,Snow,Light Snow,110,2013-02-20 22:59:00
5:22 PM,21.2,17.6,86,29.92,2.0,ESE,12.7,-,0.01,Snow,Light Snow,110,2013-02-20 23:22:00
5:35 PM,21.2,17.6,86,29.92,1.2,ESE,15.0,-,0.01,Snow,Light Snow,110,2013-02-20 23:35:00
5:50 PM,21.2,17.6,86,29.92,1.8,ESE,17.3,-,0.01,Snow,Light Snow,110,2013-02-20 23:50:00
5:51 PM,21.2,17.6,86,29.92,2.0,ESE,17.3,-,0.01,Snow,Light Snow,110,2013-02-20 23:51:00
5:53 PM,21.9,18.0,85,30.05,2.0,ESE,15.0,-,0.01,Snow,Light Snow,110,2013-02-20 23:53:00
6:04 PM,21.2,17.6,86,29.92,1.8,ESE,15.0,-,0.00,Snow,Light Snow,120,2013-02-21 00:04:00
6:20 PM,21.2,17.6,86,29.93,3.0,ESE,12.7,-,0.01,Snow,Light Snow,120,2013-02-21 00:20:00
6:29 PM,21.2,17.6,86,29.93,4.0,ESE,13.8,-,0.01,Snow,Light Snow,110,2013-02-21 00:29:00
6:53 PM,21.9,18.0,85,30.06,5.0,ESE,12.7,-,0.01,Snow,Light Snow,120,2013-02-21 00:53:00
7:11 PM,21.2,17.6,86,29.94,2.5,ESE,19.6,-,0.01,Snow,Light Snow,110,2013-02-21 01:11:00
7:16 PM,21.2,17.6,86,29.94,3.0,ESE,16.1,-,0.01,Snow,Light Snow,110,2013-02-21 01:16:00
7:44 PM,21.2,17.6,86,29.95,1.8,ESE,13.8,20.7,0.01,Snow,Light Snow,110,2013-02-21 01:44:00
7:53 PM,21.0,18.0,88,30.08,1.2,ESE,15.0,-,0.02,Snow,Light Snow,110,2013-02-21 01:53:00
8:11 PM,19.4,17.6,93,29.95,2.0,ESE,16.1,-,0.01,Snow,Light Snow,110,2013-02-21 02:11:00
8:20 PM,19.4,17.6,93,29.96,3.0,ESE,18.4,-,0.01,Snow,Light Snow,110,2013-02-21 02:20:00
8:38 PM,19.4,15.8,86,29.96,2.5,ESE,16.1,-,0.01,Snow,Light Snow,110,2013-02-21 02:38:00
8:47 PM,19.4,15.8,86,29.96,3.0,ESE,16.1,-,0.02,Snow,Light Snow,120,2013-02-21 02:47:00
8:53 PM,19.4,15.8,86,29.96,2.5,East,11.5,-,N/A,Snow,Light Snow,100,2013-02-21 02:53:00
9:17 PM,19.4,15.8,86,29.96,1.2,ESE,17.3,25.3,N/A,Snow,Light Snow,110,2013-02-21 03:17:00
9:41 PM,17.6,15.8,93,29.96,0.8,ESE,18.4,-,0.03,Snow,Light Snow,110,2013-02-21 03:41:00
9:53 PM,18.0,15.1,88,30.07,1.0,ESE,17.3,-,0.04,Snow,Light Snow,110,2013-02-21 03:53:00
10:00 PM,17.6,14.0,86,29.95,2.0,ESE,18.4,-,0.00,Snow,Light Snow,110,2013-02-21 04:00:00
10:05 PM,17.6,14.0,86,29.95,4.0,ESE,19.6,-,0.00,Snow,Light Snow,110,2013-02-21 04:05:00
10:32 PM,17.6,14.0,86,29.95,1.8,ESE,16.1,-,0.00,Snow,Light Snow,110,2013-02-21 04:32:00
10:39 PM,17.6,14.0,86,29.96,1.2,ESE,16.1,-,N/A,Snow,Light Snow,110,2013-02-21 04:39:00
10:53 PM,18.0,14.0,84,30.08,1.0,ESE,16.1,-,0.01,Snow,Light Snow,110,2013-02-21 04:53:00
10:57 PM,17.6,14.0,86,29.95,0.8,ESE,18.4,-,0.01,Snow,Light Snow,110,2013-02-21 04:57:00
11:21 PM,17.6,14.0,86,29.95,0.8,ESE,15.0,-,0.03,Snow,Light Snow,110,2013-02-21 05:21:00
11:53 PM,17.1,14.0,88,30.07,0.5,ESE,18.4,-,0.08,Fog-Snow,Snow,110,2013-02-21 05:53:00